| time (UTC) | temp C | wind direction | speed KPH | gust KPH | rain 1hr cm | rain 24hr cm | rain mn cm | humidity % | barometer mb |
| 20260509094740 | 17 | 270 | 4.8 | 12.9 | 0.00 | 0.00 | 0.00 | 62 | 1016.9 |
| 20260509093336 | 15 | 270 | 4.8 | 12.9 | 0.00 | 0.00 | 0.00 | 65 | 1017.3 |
| 20260509091907 | 15 | 270 | 4.8 | 12.9 | 0.00 | 0.00 | 0.00 | 65 | 1017.3 |
| 20260509090557 | 15 | 270 | 6.4 | 11.3 | 0.00 | 0.00 | 0.00 | 70 | 1017.6 |
| 20260509085125 | 15 | 270 | 6.4 | 11.3 | 0.00 | 0.00 | 0.00 | 70 | 1017.6 |
| 20260509083641 | 15 | 270 | 6.4 | 11.3 | 0.00 | 0.00 | 0.00 | 70 | 1017.6 |
| 20260509082350 | 13 | 270 | 4.8 | 11.3 | 0.00 | 0.00 | 0.00 | 74 | 1017.7 |
| 20260509080925 | 13 | 270 | 4.8 | 11.3 | 0.00 | 0.00 | 0.00 | 74 | 1017.7 |
| 20260509075540 | 13 | 270 | 4.8 | 9.7 | 0.00 | 0.00 | 0.00 | 78 | 1017.6 |
| 20260509074118 | 13 | 270 | 4.8 | 9.7 | 0.00 | 0.00 | 0.00 | 78 | 1017.6 |
| 20260509072747 | 13 | 315 | 3.2 | 6.4 | 0.00 | 0.00 | 0.00 | 79 | 1017.4 |
| 20260509071543 | 13 | 315 | 3.2 | 6.4 | 0.00 | 0.00 | 0.00 | 79 | 1017.4 |
| 20260509070210 | 12 | 225 | 1.6 | 3.2 | 0.00 | 0.00 | 0.00 | 79 | 1017.6 |
| 20260509065000 | 12 | 225 | 1.6 | 3.2 | 0.00 | 0.00 | 0.00 | 79 | 1017.6 |
| 20260509063654 | 12 | 225 | 1.6 | 3.2 | 0.00 | 0.00 | 0.00 | 79 | 1017.6 |
| 20260509062415 | 11 | 45 | 3.2 | 3.2 | 0.00 | 0.10 | 0.00 | 90 | 1017.5 |
| 20260509061030 | 11 | 45 | 3.2 | 3.2 | 0.00 | 0.10 | 0.00 | 90 | 1017.5 |
| 20260509055815 | 10 | 90 | 1.6 | 6.4 | 0.00 | 0.10 | 0.00 | 98 | 1017.5 |
| 20260509054347 | 10 | 90 | 1.6 | 6.4 | 0.00 | 0.10 | 0.00 | 98 | 1017.5 |
| 20260509053105 | 9 | 0 | 1.6 | 6.4 | 0.00 | 0.10 | 0.00 | 96 | 1017.3 |
| 20260509051835 | 9 | 0 | 1.6 | 6.4 | 0.00 | 0.10 | 0.00 | 96 | 1017.3 |
| 20260509050405 | 10 | 0 | 3.2 | 9.7 | 0.00 | 0.10 | 0.00 | 96 | 1017.3 |
| 20260509045115 | 10 | 0 | 3.2 | 9.7 | 0.00 | 0.10 | 0.00 | 96 | 1017.3 |
| 20260509043805 | 10 | 0 | 3.2 | 9.7 | 0.00 | 0.10 | 0.00 | 96 | 1017.3 |
| 20260509042420 | 10 | 315 | 6.4 | 9.7 | 0.00 | 0.10 | 0.00 | 96 | 1017.3 |
| 20260509041035 | 10 | 315 | 6.4 | 9.7 | 0.00 | 0.10 | 0.00 | 96 | 1017.3 |
| 20260509035712 | 10 | 0 | 6.4 | 9.7 | 0.00 | 0.10 | 0.00 | 97 | 1017.4 |
| 20260509034405 | 10 | 0 | 6.4 | 9.7 | 0.00 | 0.10 | 0.00 | 97 | 1017.4 |
| 20260509033034 | 10 | 315 | 3.2 | 6.4 | 0.00 | 0.10 | 0.00 | 98 | 1017.2 |
| 20260509031625 | 10 | 315 | 3.2 | 6.4 | 0.00 | 0.10 | 0.00 | 98 | 1017.2 |
| 20260509030355 | 10 | 0 | 4.8 | 6.4 | 0.00 | 0.10 | 0.00 | 97 | 1017.1 |
| 20260509025035 | 10 | 0 | 4.8 | 6.4 | 0.00 | 0.10 | 0.00 | 97 | 1017.1 |
| 20260509023655 | 10 | 0 | 4.8 | 6.4 | 0.00 | 0.10 | 0.00 | 97 | 1017.1 |
| 20260509022306 | 10 | 0 | 4.8 | 6.4 | 0.00 | 0.10 | 0.00 | 98 | 1017.0 |
| 20260509021026 | 10 | 0 | 4.8 | 6.4 | 0.00 | 0.10 | 0.00 | 98 | 1017.0 |
| 20260509015703 | 10 | 315 | 3.2 | 9.7 | 0.00 | 0.10 | 0.00 | 96 | 1017.1 |
| 20260509014355 | 10 | 315 | 3.2 | 9.7 | 0.00 | 0.10 | 0.00 | 96 | 1017.1 |
| 20260509013040 | 10 | 315 | 3.2 | 6.4 | 0.00 | 0.10 | 0.00 | 94 | 1016.8 |
| 20260509011715 | 10 | 315 | 3.2 | 6.4 | 0.00 | 0.10 | 0.00 | 94 | 1016.8 |
| 20260509010344 | 11 | 315 | 8.0 | 14.5 | 0.00 | 0.10 | 0.00 | 91 | 1016.8 |
| 20260509004905 | 11 | 315 | 8.0 | 14.5 | 0.00 | 0.10 | 0.00 | 91 | 1016.8 |
| 20260509003615 | 11 | 315 | 8.0 | 14.5 | 0.00 | 0.10 | 0.00 | 91 | 1016.8 |
| 20260509002300 | 12 | 315 | 4.8 | 11.3 | 0.00 | 0.10 | 0.10 | 84 | 1016.6 |
| 20260509000955 | 12 | 315 | 4.8 | 11.3 | 0.00 | 0.10 | 0.10 | 84 | 1016.6 |
| 20260508235500 | 12 | 0 | 11.3 | 29.0 | 0.00 | 0.10 | 0.10 | 82 | 1017.3 |
| 20260508234042 | 12 | 0 | 11.3 | 29.0 | 0.00 | 0.10 | 0.10 | 82 | 1017.3 |
| 20260508232633 | 12 | 0 | 17.7 | 27.4 | 0.00 | 0.08 | 0.08 | 84 | 1017.2 |
| 20260508231209 | 12 | 0 | 17.7 | 27.4 | 0.00 | 0.08 | 0.08 | 84 | 1017.2 |
| 20260508225840 | 13 | 270 | 17.7 | 35.4 | 0.08 | 0.08 | 0.08 | 80 | 1017.1 |
| 20260508224439 | 13 | 270 | 17.7 | 35.4 | 0.08 | 0.08 | 0.08 | 80 | 1017.1 |
| 20260508223101 | 15 | 270 | 9.7 | 17.7 | 0.00 | 0.00 | 0.00 | 65 | 1016.4 |
| 20260508221745 | 15 | 270 | 9.7 | 17.7 | 0.00 | 0.00 | 0.00 | 65 | 1016.4 |
| 20260508220440 | 13 | 315 | 6.4 | 14.5 | 0.00 | 0.00 | 0.00 | 68 | 1015.9 |
| 20260508215110 | 13 | 315 | 6.4 | 14.5 | 0.00 | 0.00 | 0.00 | 68 | 1015.9 |
| 20260508213724 | 13 | 315 | 6.4 | 14.5 | 0.00 | 0.00 | 0.00 | 68 | 1015.9 |
| 20260508212320 | 15 | 0 | 9.7 | 14.5 | 0.00 | 0.00 | 0.00 | 59 | 1015.2 |
| 20260508210955 | 15 | 0 | 9.7 | 14.5 | 0.00 | 0.00 | 0.00 | 59 | 1015.2 |
| 20260508205533 | 16 | 45 | 9.7 | 17.7 | 0.00 | 0.00 | 0.00 | 58 | 1014.9 |
| 20260508204320 | 16 | 45 | 9.7 | 17.7 | 0.00 | 0.00 | 0.00 | 58 | 1014.9 |
| 20260508203015 | 16 | 0 | 9.7 | 14.5 | 0.00 | 0.00 | 0.00 | 57 | 1014.4 |
| 20260508201700 | 16 | 0 | 9.7 | 14.5 | 0.00 | 0.00 | 0.00 | 57 | 1014.4 |
| 20260508200330 | 15 | 45 | 9.7 | 11.3 | 0.00 | 0.00 | 0.00 | 67 | 1014.0 |
| 20260508195024 | 15 | 45 | 9.7 | 11.3 | 0.00 | 0.00 | 0.00 | 67 | 1014.0 |
| 20260508193630 | 15 | 45 | 9.7 | 11.3 | 0.00 | 0.00 | 0.00 | 67 | 1014.0 |
| 20260508192355 | 15 | 45 | 6.4 | 9.7 | 0.00 | 0.00 | 0.00 | 66 | 1013.6 |
| 20260508191020 | 15 | 45 | 6.4 | 9.7 | 0.00 | 0.00 | 0.00 | 66 | 1013.6 |
| 20260508185640 | 18 | 45 | 6.4 | 11.3 | 0.00 | 0.00 | 0.00 | 48 | 1012.7 |
| 20260508184345 | 18 | 45 | 6.4 | 11.3 | 0.00 | 0.00 | 0.00 | 48 | 1012.7 |
| 20260508183045 | 20 | 45 | 8.0 | 17.7 | 0.00 | 0.00 | 0.00 | 43 | 1012.0 |
| 20260508181810 | 20 | 45 | 8.0 | 17.7 | 0.00 | 0.00 | 0.00 | 43 | 1012.0 |
| 20260508180414 | 20 | 45 | 8.0 | 17.7 | 0.00 | 0.00 | 0.00 | 43 | 1012.0 |
| 20260508175030 | 20 | 45 | 8.0 | 17.7 | 0.00 | 0.00 | 0.00 | 43 | 1012.0 |
| 20260508173740 | 20 | 45 | 8.0 | 17.7 | 0.00 | 0.00 | 0.00 | 43 | 1012.0 |
| 20260508172400 | 20 | 45 | 6.4 | 17.7 | 0.00 | 0.00 | 0.00 | 40 | 1012.0 |
| 20260508171115 | 20 | 45 | 6.4 | 17.7 | 0.00 | 0.00 | 0.00 | 40 | 1012.0 |
| 20260508165640 | 20 | 45 | 8.0 | 17.7 | 0.00 | 0.00 | 0.00 | 39 | 1012.1 |
| 20260508164340 | 20 | 45 | 8.0 | 17.7 | 0.00 | 0.00 | 0.00 | 39 | 1012.1 |
| 20260508163000 | 20 | 45 | 9.7 | 17.7 | 0.00 | 0.00 | 0.00 | 39 | 1012.3 |
| 20260508161730 | 20 | 45 | 9.7 | 17.7 | 0.00 | 0.00 | 0.00 | 39 | 1012.3 |
| 20260508160330 | 20 | 90 | 8.0 | 17.7 | 0.00 | 0.00 | 0.00 | 43 | 1012.6 |
| 20260508154956 | 20 | 90 | 8.0 | 17.7 | 0.00 | 0.00 | 0.00 | 43 | 1012.6 |
| 20260508153545 | 20 | 90 | 9.7 | 17.7 | 0.00 | 0.00 | 0.00 | 47 | 1012.9 |
| 20260508152310 | 20 | 90 | 9.7 | 17.7 | 0.00 | 0.00 | 0.00 | 47 | 1012.9 |
| 20260508150920 | 20 | 90 | 9.7 | 17.7 | 0.00 | 0.00 | 0.00 | 47 | 1012.9 |
| 20260508145520 | 19 | 90 | 11.3 | 22.5 | 0.00 | 0.00 | 0.00 | 44 | 1013.2 |
| 20260508144100 | 19 | 90 | 11.3 | 22.5 | 0.00 | 0.00 | 0.00 | 44 | 1013.2 |
| 20260508142755 | 19 | 45 | 11.3 | 19.3 | 0.00 | 0.00 | 0.00 | 48 | 1013.8 |
| 20260508141438 | 19 | 45 | 11.3 | 19.3 | 0.00 | 0.00 | 0.00 | 48 | 1013.8 |
| 20260508140140 | 18 | 90 | 9.7 | 22.5 | 0.00 | 0.00 | 0.00 | 50 | 1014.2 |
| 20260508134905 | 18 | 90 | 9.7 | 22.5 | 0.00 | 0.00 | 0.00 | 50 | 1014.2 |
| 20260508133550 | 18 | 90 | 8.0 | 22.5 | 0.00 | 0.00 | 0.00 | 52 | 1014.4 |
| 20260508132350 | 18 | 90 | 8.0 | 22.5 | 0.00 | 0.00 | 0.00 | 52 | 1014.4 |
| 20260508131038 | 18 | 90 | 8.0 | 22.5 | 0.00 | 0.00 | 0.00 | 52 | 1014.4 |
| 20260508125830 | 17 | 90 | 6.4 | 17.7 | 0.00 | 0.00 | 0.00 | 58 | 1014.6 |
| 20260508124505 | 17 | 90 | 6.4 | 17.7 | 0.00 | 0.00 | 0.00 | 58 | 1014.6 |
| 20260508123105 | 16 | 90 | 6.4 | 14.5 | 0.00 | 0.00 | 0.00 | 57 | 1015.1 |
| 20260508121715 | 16 | 90 | 6.4 | 14.5 | 0.00 | 0.00 | 0.00 | 57 | 1015.1 |
| 20260508120300 | 16 | 135 | 6.4 | 16.1 | 0.00 | 0.00 | 0.00 | 60 | 1015.4 |
| 20260508114930 | 16 | 135 | 6.4 | 16.1 | 0.00 | 0.00 | 0.00 | 60 | 1015.4 |
| 20260508113555 | 15 | 135 | 6.4 | 14.5 | 0.00 | 0.00 | 0.00 | 62 | 1015.8 |
| 20260508112120 | 15 | 135 | 6.4 | 14.5 | 0.00 | 0.00 | 0.00 | 62 | 1015.8 |
| 20260508110855 | 15 | 135 | 6.4 | 14.5 | 0.00 | 0.00 | 0.00 | 62 | 1015.8 |
| 20260508105445 | 15 | 90 | 9.7 | 16.1 | 0.00 | 0.00 | 0.00 | 64 | 1015.9 |
| 20260508104131 | 15 | 90 | 9.7 | 16.1 | 0.00 | 0.00 | 0.00 | 64 | 1015.9 |
| 20260508102815 | 15 | 180 | 3.2 | 14.5 | 0.00 | 0.00 | 0.00 | 65 | 1016.2 |
| 20260508101440 | 15 | 180 | 3.2 | 14.5 | 0.00 | 0.00 | 0.00 | 65 | 1016.2 |
| 20260508100140 | 14 | 45 | 4.8 | 14.5 | 0.00 | 0.00 | 0.00 | 66 | 1016.2 |